TimeMST,TemperatureF,Dew PointF,Humidity,Sea Level PressureIn,VisibilityMPH,Wind Direction,Wind SpeedMPH,Gust SpeedMPH,PrecipitationIn,Events,Conditions,WindDirDegrees,DateUTC
12:53 AM,46.9,18.0,32,29.86,10.0,SW,21.9,34.5,N/A,,Clear,220,2012-11-29 07:53:00
1:53 AM,45.0,19.0,36,29.86,10.0,SSW,18.4,-,N/A,,Clear,210,2012-11-29 08:53:00
2:53 AM,44.1,19.0,37,29.86,10.0,SW,12.7,-,N/A,,Clear,230,2012-11-29 09:53:00
3:53 AM,42.1,19.0,40,29.88,10.0,North,-9999.0,-,N/A,,Clear,0,2012-11-29 10:53:00
4:53 AM,43.0,19.0,38,29.89,10.0,SW,23.0,29.9,N/A,,Mostly Cloudy,230,2012-11-29 11:53:00
5:53 AM,39.9,19.0,43,29.90,10.0,WSW,13.8,-,N/A,,Clear,240,2012-11-29 12:53:00
6:53 AM,39.0,19.9,46,29.92,10.0,SW,12.7,-,N/A,,Clear,230,2012-11-29 13:53:00
7:53 AM,42.1,21.0,43,29.92,10.0,SSW,19.6,24.2,N/A,,Clear,210,2012-11-29 14:53:00
8:53 AM,46.0,23.0,40,29.91,10.0,SW,20.7,-,N/A,,Clear,230,2012-11-29 15:53:00
9:53 AM,50.0,24.1,36,29.91,10.0,SW,23.0,34.5,N/A,,Clear,230,2012-11-29 16:53:00
10:53 AM,52.0,23.0,32,29.93,10.0,West,28.8,40.3,N/A,,Clear,260,2012-11-29 17:53:00
11:53 AM,53.1,24.1,32,29.91,10.0,WSW,29.9,35.7,N/A,,Clear,250,2012-11-29 18:53:00
12:53 PM,55.0,23.0,29,29.90,10.0,WSW,20.7,31.1,N/A,,Clear,250,2012-11-29 19:53:00
1:53 PM,54.0,19.9,26,29.90,10.0,West,23.0,28.8,N/A,,Partly Cloudy,270,2012-11-29 20:53:00
2:53 PM,52.0,19.9,28,29.91,10.0,West,17.3,-,N/A,,Clear,260,2012-11-29 21:53:00
3:53 PM,48.9,19.0,31,29.94,10.0,SW,12.7,-,N/A,,Clear,230,2012-11-29 22:53:00
4:53 PM,41.0,19.0,41,29.98,10.0,WSW,6.9,-,N/A,,Clear,240,2012-11-29 23:53:00
5:53 PM,42.1,19.9,41,29.99,10.0,WSW,11.5,-,N/A,,Clear,250,2012-11-30 00:53:00
6:53 PM,41.0,19.9,43,30.00,10.0,SW,11.5,-,N/A,,Clear,230,2012-11-30 01:53:00
7:53 PM,43.0,21.9,43,29.96,10.0,SW,18.4,-,N/A,,Clear,230,2012-11-30 02:53:00
8:53 PM,39.9,21.9,49,29.97,10.0,WSW,10.4,-,N/A,,Clear,240,2012-11-30 03:53:00
9:53 PM,42.1,21.9,45,29.94,10.0,SW,13.8,-,N/A,,Clear,220,2012-11-30 04:53:00
10:53 PM,41.0,21.9,47,29.94,10.0,SW,13.8,-,N/A,,Clear,220,2012-11-30 05:53:00
11:53 PM,43.0,21.9,43,29.93,10.0,SSW,13.8,-,N/A,,Clear,210,2012-11-30 06:53:00